[Date Prev][Date Next][Thread Prev][Thread Next] - [Date Index][Thread Index][Author Index]
2 Line ISS Keps 5-22
- Subject: [sarex] 2 Line ISS Keps 5-22
- From: "Dave Larsen PhD" <doc@xxxxxxxxxxx>
- Date: Sat, 21 May 2005 18:34:25 -0700
ISS
1 25544U 98067A 05141.94988426 .00015490 00000-0 12035-3 0 5215
2 25544 051.6452 035.3055 0005832 147.9834 031.0816 15.71982503371551
----
Via the sarex mailing list at AMSAT.ORG courtesy of AMSAT-NA.
To unsubscribe, send "unsubscribe sarex" to Majordomo@amsat.org
AMSAT Home